STARLINK-32947, 63121

Orbit data source: Space-Track

STARLINK-32947, 63121 is a payload satellite owned by SpaceX/Seattle (US) in LEO that was launched on Thu, 27 Feb 2025 UTC via an FALCON 9 launch vehicle from the Air Force Eastern Test Range (AFETR). Payload-class satellites include a variety of spacecraft equipped with specific instruments for various scientific and technological missions. These include communications satellites like Starlink; space stations such as the ISS; scientific satellites like the Hubble; Earth observation satellites from companies like Planet Labs, Umbra, and HawkEye 360; GPS; miniature CubeSats for education and research; and military/defense satellites.

Loading next visibility...
Identifier
63121, 2025-039T
Orbit
LEO
Country
Flag of USUS
Related business
Manufacturer
SpaceX/Seattle
Mission
Operational Commercial Communications
Bus & Motor
STARLINK V2M, Unknown motor
Mass
730 kg wet, ~700 kg dry
Launch date (UTC)
2025-02-27 (8 months ago)
Launch vehicle
FALCON 9
Launch site
Air Force Eastern Test Range (AFETR)
Object type
Payload
Rocket body
Debris
Shape & HBR
Box + 2 Pan, 17.7 m
Radar Cross Section
33.884 m², Large (>1 m²)

Expand to show TLE details & history
Last TLE update: 1 day ago

TLE from 1 day ago
0 STARLINK-32947
1 63121U 25039T   25309.52758682  .00032968  00000-0  12015-2 0  9993
2 63121  43.0035 353.4844 0002172 258.6242 101.4366 15.27600087 39089
Epoch: 2025-11-05T12:39Z
TLE epoch observation values (Epoch: 2025-11-05T12:39:43.501Z)
Latitude
0.00001°
Longitude
118.55418°
Altitude
483.061 km
Speed
7.626 km/s
True Right ascension
23h 33m 56s
True Declination
0° 00' 00"
Sunlit
Object was in full shadow at epoch
Visualization orbit readout
Latitude
Unknown
Longitude
Unknown
Altitude
Unknown
Speed
Unknown
Apparent Right ascension
Unknown
Apparent Declination
Unknown
Sunlit
N/A
Visualization observer readout
Local Sidereal Time
10:06:04
Azimuth
Unknown
Elevation
Unknown
Doppler factor
Unknown
Orbital elements
Apogee altitude
486.424 km
Perigee altitude
483.443 km
Semi-major axis
6,863.071 km
Eccentricity
0.00022
Inclination
43.0035°
RAAN
353.4844°
Arg. of periapsis
258.6242°
True anomaly
101.46099°
Mean anomaly
101.4366°
Eccentric anomaly
101.4488°
Mean motion
3.81738 °/min
Orbital period
94.31 mins
BSTAR
0.0012015
Loading maneuver chart data...
Computing Atmospheric mass density...
Loading historical data...
Loading historical data...
Loading historical data...
Loading historical data...
Loading historical data...
Loading historical data...
Loading historical data...

Documentation

Showing up to 5 results
|